Back to catalog

STARLINK-36297

AliveCommunicationsSSO
NORAD 67671·PAYLOAD·🇺🇸 United States

Launched Feb 2, 2026 from Vandenberg Space Force Base

Loading…

Next Passes (next 24 hours)

TLE

FreshSource: CelesTrak SupGP

Epoch: Sep 14, 2026, 23:14 UTC

1 67671C 26022Z   26257.96854167  .00034247  00000+0  10632-2 0  2577
2 67671  97.2845 289.6785 0001084  98.3106 263.9428 15.33418926    16

Track STARLINK-36297 in real time with AllMySat

Download on the App Store